World > North America > United States > Ohio

Coalton, Ohio Regional Weather

Lat: 39.11N, Lon: 82.61W
Wx Zone: OHZ083
Feedback

Coalton, OH Regional Weather

Expires:201910240500;;180091
ASUS41 KCLE 240412
RWRCLE
OHIO REGIONAL WEATHER ROUNDUP
NATIONAL WEATHER SERVICE WILMINGTON, OH
1200 AM EDT THU OCT 24 2019

NOTE: "FAIR" INDICATES FEW OR NO CLOUDS BELOW 12,000 FEET WITH NO
SIGNIFICANT WEATHER AND/OR OBSTRUCTIONS TO VISIBILITY.


OHZ036-037-039>041-045>050-054>059-063>069-073>076-082>088-240500-
  CENTRAL AND SOUTHEAST OHIO
  
CITY           SKY/WX    TMP DP  RH WIND       PRES   REMARKS
COLUMBUS       MOCLDY    51  32  48 S9        30.15F                  
OSU AIRPORT    FAIR      53  31  42 S13       30.14F                  
BOLTON FIELD   FAIR      49  34  54 S7        30.16F                  
RICKENBACK AFB FAIR      49  33  54 S8        30.16F                  
NEWARK         FAIR      42  34  73 CALM      30.17S                  
MARION         FAIR      53  32  44 S16       30.11F                  
LANCASTER      FAIR      50  33  52 S6        30.18S                  
ZANESVILLE     FAIR      48  32  53 S7        30.19R                  
NEW PHILLY     FAIR      51  32  48 S6        30.17S                  
$$
  

SKY/WX - Weather  TMP - Temperature  DP - Dew Point  RH - Relative Humidity
WIND - Wind Direction/Speed PRES - Barometric Pressure VSB - Visibility
WCI - Wind Chill Index E13G22 Wind - East Wind 13 mph/Gusts of 22 mph